This is the latest recevied weather packets stored in our database for station/object DM4XI-13. If no packets are shown the sender has not sent any weather packets the latest 10 day(s).
| Time | Temp. | Humidity | Pressure | Rain* | Wind** | Luminosity | Snow |
|---|---|---|---|---|---|---|---|
| 1777396461 | 17.22° C | 33% | 1015.9 hPa | 0 mm | 0.45 m/s, 348° | 48 W/m² | - |
| 1777396400 | 17.22° C | 33% | 1016.1 hPa | 0 mm | 0.45 m/s, 202° | 49 W/m² | - |
| 1777396339 | 17.22° C | 33% | 1016.1 hPa | 0 mm | 0.45 m/s, 219° | 50 W/m² | - |
| 1777396277 | 17.22° C | 33% | 1015.9 hPa | 0 mm | 0 m/s | 51 W/m² | - |
| 1777396217 | 17.22° C | 33% | 1015.9 hPa | 0 mm | 0.89 m/s, 286° | 52 W/m² | - |
| 1777396156 | 17.22° C | 32% | 1016 hPa | 0 mm | 1.34 m/s, 3° | 52 W/m² | - |
| 1777396095 | 17.22° C | 33% | 1015.8 hPa | 0 mm | 1.34 m/s, 283° | 52 W/m² | - |
| 1777396034 | 17.22° C | 33% | 1016 hPa | 0 mm | 0.89 m/s, 259° | 53 W/m² | - |
| 1777395972 | 17.22° C | 33% | 1016.1 hPa | 0 mm | 0.89 m/s, 45° | 53 W/m² | - |
| 1777395913 | 17.22° C | 33% | 1016 hPa | 0 mm | 0.45 m/s, 250° | 53 W/m² | - |
| 1777395852 | 17.22° C | 33% | 1016 hPa | 0 mm | 0 m/s | 53 W/m² | - |
| 1777395791 | 17.22° C | 33% | 1015.9 hPa | 0 mm | 0.45 m/s, 27° | 53 W/m² | - |
| 1777395730 | 17.22° C | 33% | 1016 hPa | 0 mm | 0.45 m/s, 42° | 54 W/m² | - |
| 1777395669 | 17.22° C | 33% | 1015.9 hPa | 0 mm | 0.89 m/s, 247° | 55 W/m² | - |
| 1777395608 | 17.22° C | 33% | 1015.8 hPa | 0 mm | 0 m/s | 56 W/m² | - |
| 1777395547 | 17.22° C | 33% | 1016 hPa | 0 mm | 0.45 m/s, 327° | 57 W/m² | - |
| 1777395486 | 17.22° C | 33% | 1015.7 hPa | 0 mm | 0.45 m/s, 263° | 59 W/m² | - |
| 1777395425 | 17.22° C | 33% | 1015.8 hPa | 0 mm | 0.89 m/s, 177° | 59 W/m² | - |
| 1777395364 | 17.22° C | 33% | 1015.9 hPa | 0 mm | 0 m/s | 61 W/m² | - |
| 1777395303 | 17.78° C | 33% | 1015.9 hPa | 0 mm | 0.89 m/s, 266° | 63 W/m² | - |
| 1777395242 | 17.78° C | 32% | 1015.9 hPa | 0 mm | 0.89 m/s, 99° | 64 W/m² | - |
| 1777395181 | 17.78° C | 33% | 1015.8 hPa | 0 mm | 0.45 m/s, 0° | 66 W/m² | - |
| 1777395120 | 17.78° C | 32% | 1015.8 hPa | 0 mm | 0.45 m/s, 327° | 67 W/m² | - |
| 1777395059 | 17.78° C | 32% | 1015.8 hPa | 0 mm | 0 m/s | 68 W/m² | - |
| 1777394998 | 17.78° C | 32% | 1015.7 hPa | 0 mm | 0.89 m/s, 7° | 71 W/m² | - |
* Rain latest hour (hover to see other rain measurements)
** Current wind speed in m/s (hover to see current wind gust speed)